RUK9609 EGAA-LFOB

Flight info

Callsign RUK9609
Flight time N/A
Altitude 25000
Route BELZU DCT DEGOS DCT TUGSI DCT DIRUM DCT BANBA DCT DIQSE DCT ICOSA DCT RUHUN DCT YORQI DCT UNZIB DCT NUCHU L18 MID Y803 SFD M605 PETAX J150 VELOL
Aircraft B738/M-SDE2E3FGHIRWXY/LB1

Departure

Time 2026-04-27 15:24
Airport Belfast International Airport (EGAA)

Arrival

Time N/A
Airport Beauvais-Tillé airport (LFOB)
Time Latitude Longitude Altitude Speed Heading
2026-04-27 14:50 54.65950 -6.21922 271 ft 0 kts 65°
2026-04-27 15:12 54.65946 -6.21937 271 ft 4 kts 65°
2026-04-27 15:12 54.65934 -6.21980 273 ft 4 kts 65°
2026-04-27 15:13 54.65925 -6.22013 273 ft 4 kts 75°
2026-04-27 15:13 54.65925 -6.22054 277 ft 4 kts 125°
2026-04-27 15:13 54.65941 -6.22077 273 ft 2 kts 155°
2026-04-27 15:13 54.65919 -6.22060 271 ft 4 kts 155°
2026-04-27 15:14 54.65896 -6.22041 273 ft 2 kts 155°
2026-04-27 15:14 54.65895 -6.22040 271 ft 0 kts 155°
2026-04-27 15:18 54.65888 -6.22035 271 ft 6 kts 155°
2026-04-27 15:19 54.65841 -6.21983 271 ft 11 kts 123°
2026-04-27 15:19 54.65869 -6.21815 274 ft 18 kts 64°
2026-04-27 15:19 54.65924 -6.21612 271 ft 18 kts 65°
2026-04-27 15:19 54.65976 -6.21419 271 ft 18 kts 65°
2026-04-27 15:20 54.66027 -6.21229 275 ft 17 kts 65°
2026-04-27 15:20 54.66078 -6.21039 271 ft 19 kts 65°
2026-04-27 15:20 54.66133 -6.20835 273 ft 18 kts 65°
2026-04-27 15:20 54.66185 -6.20641 271 ft 18 kts 65°
2026-04-27 15:21 54.66238 -6.20453 271 ft 17 kts 63°
2026-04-27 15:21 54.66287 -6.20264 274 ft 17 kts 65°
2026-04-27 15:21 54.66337 -6.20079 271 ft 17 kts 66°
2026-04-27 15:21 54.66386 -6.19897 271 ft 17 kts 66°
2026-04-27 15:22 54.66366 -6.19717 271 ft 16 kts 141°
2026-04-27 15:22 54.66268 -6.19673 271 ft 14 kts 216°
2026-04-27 15:22 54.66244 -6.19745 272 ft 0 kts 245°
2026-04-27 15:23 54.66239 -6.19761 271 ft 9 kts 245°
2026-04-27 15:23 54.66128 -6.20178 271 ft 78 kts 245°
2026-04-27 15:23 54.65787 -6.21444 274 ft 150 kts 245°
2026-04-27 15:24 54.65295 -6.23240 752 ft 170 kts 249°
2026-04-27 15:24 54.64748 -6.25045 1743 ft 171 kts 246°
2026-04-27 15:24 54.64135 -6.26916 2410 ft 190 kts 244°
2026-04-27 15:24 54.63384 -6.29051 2655 ft 227 kts 231°
2026-04-27 15:25 54.62131 -6.30843 3092 ft 244 kts 219°
2026-04-27 15:25 54.60742 -6.32668 3529 ft 260 kts 219°
2026-04-27 15:25 54.59261 -6.34649 4098 ft 273 kts 220°
2026-04-27 15:25 54.57744 -6.36705 5045 ft 276 kts 220°
2026-04-27 15:26 54.56247 -6.38755 6057 ft 278 kts 220°
2026-04-27 15:26 54.54704 -6.40885 6919 ft 284 kts 220°
2026-04-27 15:26 54.53172 -6.43011 7800 ft 287 kts 221°
2026-04-27 15:26 54.51600 -6.45202 8639 ft 292 kts 222°
2026-04-27 15:27 54.50012 -6.47418 9516 ft 296 kts 223°
2026-04-27 15:27 54.48392 -6.49684 10337 ft 303 kts 224°
2026-04-27 15:27 54.46711 -6.52044 10602 ft 328 kts 224°
2026-04-27 15:27 54.44865 -6.54635 10987 ft 346 kts 223°
2026-04-27 15:28 54.42978 -6.57268 11686 ft 353 kts 223°
2026-04-27 15:28 54.41051 -6.59950 12477 ft 358 kts 223°
2026-04-27 15:28 54.39100 -6.62662 13275 ft 363 kts 224°
2026-04-27 15:28 54.37124 -6.65409 14098 ft 369 kts 224°
2026-04-27 15:29 54.35108 -6.68209 14844 ft 374 kts 224°
2026-04-27 15:29 54.33073 -6.71031 15660 ft 377 kts 224°
2026-04-27 15:29 54.31045 -6.73842 16477 ft 381 kts 224°
2026-04-27 15:29 54.28966 -6.76718 17283 ft 385 kts 224°
2026-04-27 15:30 54.26862 -6.79628 18072 ft 390 kts 224°
2026-04-27 15:30 54.24729 -6.82574 18836 ft 394 kts 224°
2026-04-27 15:30 54.22608 -6.85500 19485 ft 399 kts 224°
2026-04-27 15:30 54.20434 -6.88492 20150 ft 403 kts 224°
2026-04-27 15:31 54.18233 -6.91526 20798 ft 406 kts 225°
2026-04-27 15:31 54.16066 -6.94651 21490 ft 408 kts 226°
2026-04-27 15:31 54.13917 -6.97845 22124 ft 412 kts 226°
2026-04-27 15:31 54.11738 -7.01095 22746 ft 417 kts 226°
2026-04-27 15:32 54.09540 -7.04354 23372 ft 421 kts 226°
2026-04-27 15:32 54.07311 -7.07631 23965 ft 425 kts 226°
2026-04-27 15:32 54.05052 -7.10936 24476 ft 429 kts 226°
2026-04-27 15:32 54.02702 -7.14131 24948 ft 439 kts 216°
2026-04-27 15:33 53.99864 -7.16078 25406 ft 454 kts 194°
2026-04-27 15:33 53.96697 -7.16411 25920 ft 461 kts 174°
2026-04-27 15:33 53.94572 -7.15693 26241 ft 463 kts 163°
2026-04-27 15:33 53.90465 -7.13499 26880 ft 468 kts 161°
2026-04-27 15:34 53.88365 -7.12318 27178 ft 471 kts 160°
2026-04-27 15:34 53.85281 -7.10576 27616 ft 475 kts 161°
2026-04-27 15:34 53.82122 -7.08814 28068 ft 478 kts 161°
2026-04-27 15:34 53.78941 -7.07072 28526 ft 481 kts 161°
2026-04-27 15:35 53.75726 -7.05341 29003 ft 483 kts 161°
2026-04-27 15:35 53.72508 -7.03628 29444 ft 486 kts 161°
2026-04-27 15:35 53.69299 -7.01932 29839 ft 489 kts 161°
2026-04-27 15:35 53.66036 -7.00213 30227 ft 493 kts 161°
2026-04-27 15:36 53.62749 -6.98485 30585 ft 496 kts 161°
2026-04-27 15:36 53.59445 -6.96749 30932 ft 498 kts 161°
2026-04-27 15:36 53.56139 -6.95015 31349 ft 497 kts 161°
2026-04-27 15:36 53.52831 -6.93281 31883 ft 494 kts 160°
2026-04-27 15:37 53.49549 -6.91565 32459 ft 491 kts 160°
2026-04-27 15:37 53.46335 -6.89886 32928 ft 490 kts 160°
2026-04-27 15:37 53.43071 -6.88181 33309 ft 490 kts 160°
2026-04-27 15:37 53.39810 -6.86480 33699 ft 491 kts 160°
2026-04-27 15:38 53.36545 -6.84781 34166 ft 490 kts 160°
2026-04-27 15:38 53.33277 -6.83084 34608 ft 488 kts 160°
2026-04-27 15:38 53.30067 -6.81420 35048 ft 485 kts 160°
2026-04-27 15:38 53.26845 -6.79752 35389 ft 485 kts 160°
2026-04-27 15:39 53.20336 -6.76387 35376 ft 489 kts 160°
2026-04-27 15:39 53.13950 -6.73101 35373 ft 481 kts 160°
2026-04-27 15:40 53.07508 -6.69791 35392 ft 482 kts 160°
2026-04-27 15:40 53.01079 -6.66499 35387 ft 483 kts 160°
2026-04-27 15:41 52.94560 -6.63565 35382 ft 485 kts 164°
2026-04-27 15:41 52.88014 -6.60967 35379 ft 486 kts 164°
2026-04-27 15:42 52.81443 -6.58359 35380 ft 486 kts 164°
2026-04-27 15:42 52.74868 -6.55700 35375 ft 485 kts 163°
2026-04-27 15:43 52.68314 -6.53034 35375 ft 483 kts 163°
2026-04-27 15:43 52.61786 -6.50386 35383 ft 483 kts 164°
2026-04-27 15:44 52.55307 -6.47769 35382 ft 482 kts 163°
2026-04-27 15:44 52.48799 -6.45148 35373 ft 481 kts 163°
2026-04-27 15:45 52.42302 -6.42540 35376 ft 481 kts 163°
2026-04-27 15:45 52.35799 -6.39937 35374 ft 480 kts 163°
2026-04-27 15:46 52.29299 -6.37343 35374 ft 480 kts 163°
2026-04-27 15:46 52.22820 -6.34766 35373 ft 479 kts 163°
2026-04-27 15:47 52.16327 -6.32190 35365 ft 479 kts 163°
2026-04-27 15:47 52.09845 -6.29626 35365 ft 479 kts 163°
2026-04-27 15:48 52.03370 -6.27072 35360 ft 478 kts 163°
2026-04-27 15:48 52.00222 -6.25580 35341 ft 473 kts 151°
2026-04-27 15:49 51.95376 -6.18944 35373 ft 450 kts 119°
2026-04-27 15:49 51.93870 -6.14587 35356 ft 439 kts 105°
2026-04-27 15:49 51.93001 -6.09915 35369 ft 432 kts 98°
2026-04-27 15:50 51.91598 -6.00438 35350 ft 432 kts 97°
2026-04-27 15:50 51.90195 -5.90929 35350 ft 434 kts 97°
2026-04-27 15:51 51.88739 -5.81453 35357 ft 436 kts 98°
2026-04-27 15:51 51.87245 -5.71919 35356 ft 437 kts 98°
2026-04-27 15:52 51.85735 -5.62364 35348 ft 439 kts 98°
2026-04-27 15:52 51.84216 -5.52801 35345 ft 440 kts 98°
2026-04-27 15:53 51.82684 -5.43200 35337 ft 440 kts 98°
2026-04-27 15:53 51.81148 -5.33619 35335 ft 440 kts 98°
2026-04-27 15:54 51.79648 -5.24007 35327 ft 438 kts 96°
2026-04-27 15:54 51.78502 -5.14422 35326 ft 436 kts 94°
2026-04-27 15:55 51.77429 -5.04764 35325 ft 436 kts 94°
2026-04-27 15:55 51.76323 -4.95115 35323 ft 435 kts 94°
2026-04-27 15:56 51.75195 -4.85559 35348 ft 435 kts 95°
2026-04-27 15:56 51.74046 -4.75944 35319 ft 436 kts 94°
2026-04-27 15:57 51.72885 -4.66321 35320 ft 436 kts 95°
2026-04-27 15:57 51.71720 -4.56717 35318 ft 436 kts 95°
2026-04-27 15:58 51.70546 -4.47114 35309 ft 436 kts 95°
2026-04-27 15:58 51.69378 -4.37618 35301 ft 436 kts 95°
2026-04-27 15:59 51.68186 -4.27999 35312 ft 436 kts 95°
2026-04-27 15:59 51.66988 -4.18396 35292 ft 437 kts 95°
2026-04-27 16:00 51.65780 -4.08788 35295 ft 437 kts 95°
2026-04-27 16:00 51.64564 -3.99171 35289 ft 438 kts 95°
2026-04-27 16:01 51.63339 -3.89551 35292 ft 438 kts 95°
2026-04-27 16:01 51.62093 -3.79928 35283 ft 440 kts 95°
2026-04-27 16:02 51.60832 -3.70343 35283 ft 441 kts 95°
2026-04-27 16:02 51.59555 -3.60658 35268 ft 443 kts 95°
2026-04-27 16:03 51.58767 -3.50908 35274 ft 438 kts 88°
2026-04-27 16:03 51.58274 -3.41135 35271 ft 439 kts 88°
2026-04-27 16:04 51.57755 -3.31323 35272 ft 441 kts 89°
2026-04-27 16:04 51.57190 -3.21550 35273 ft 442 kts 89°
2026-04-27 16:05 51.56595 -3.11694 35265 ft 444 kts 89°
2026-04-27 16:05 51.55989 -3.01806 35264 ft 444 kts 89°
2026-04-27 16:06 51.55374 -2.91908 35284 ft 445 kts 89°
2026-04-27 16:06 51.54751 -2.81997 35287 ft 445 kts 90°
2026-04-27 16:07 51.54124 -2.72147 35259 ft 446 kts 90°
2026-04-27 16:07 51.53484 -2.62241 35267 ft 446 kts 90°
2026-04-27 16:08 51.52837 -2.52330 35261 ft 446 kts 90°
2026-04-27 16:08 51.52183 -2.42444 35264 ft 445 kts 91°
2026-04-27 16:09 51.51963 -2.39155 35282 ft 445 kts 91°